User: anonymous   Login
Location: Unspecified
(0.0000°N, 0.0000°E)
Time: 19:13:51
(UTC+00:00)
Language:

AMOS 1 - Orbit

View from above orbital plane
View from above orbital plane
View from above satellite
View from above satellite

Ground track
Ground track

The orbit data is extracted from the following two-line orbital elements,

1 23865U 96030B   15178.65050590 -.00000056  00000-0  00000+0 0  9995
2 23865 005.7885 059.2385 0012358 088.3962 237.0872 00.97116843 69650
Epoch (UTC): 27 June 2015 15:36:43
Eccentricity: 0.0012358
inclination: 5.7885°
perigee height: 36641 km
apogee height: 36748 km
right ascension of ascending node: 59.2385°
argument of perigee: 88.3962°
revolutions per day: 0.97116843
mean anomaly at epoch: 237.0872°
orbit number at epoch: 6965

The dashed part of the orbit path shows where the satellite is in the earth's shadow,  

DLR